Regional Weather Roundup
Issued by NWS Jackson, KY

Home | Current Version | Previous Version | Text Only | Print | Product List | Glossary On
Versions: 1 2 3 4 5 6 7 8 9 10 11 12 13 14 15 16 17 18 19 20 21 22 23 24 25 26 27 28 29 30 31 32 33 34 35 36 37 38 39 40 41 42 43 44 45 46 47 48 49 50
000
ASUS43 KJKL 230219
RWRJKL

EAST KENTUCKY HOURLY WEATHER ROUNDUP
NATIONAL WEATHER SERVICE JACKSON KY
1000 PM EDT MON SEP 22 2014

NOTE: "FAIR" INDICATES FEW OR NO CLOUDS BELOW 12,000 FEET WITH
NO SIGNIFICANT WEATHER AND/OR OBSTRUCTIONS TO VISIBILITY.

* THESE REPORTS ARE NOT UNDER NWS QUALITY CONTROL AND MAY NOT
  REPORT WEATHER SUCH AS PRECIPITATION AND FOG.

KYZ079-080-083-085-087-088-110-112-115-119-120-230300
...EASTERN KENTUCKY...

CITY           SKY/WX    TMP DP  RH WIND       PRES   REMARKS
JACKSON        CLEAR     58  45  62 N3        30.25R
LONDON         CLEAR     55  47  74 N3        30.25R
SOMERSET*      CLEAR     54  43  66 N3        30.25R
MONTICELLO*    CLEAR     49  47  93 CALM      30.25R
MIDDLESBORO*   CLEAR     53  51  92 CALM      30.24R
HARLAN APT*    CLEAR     52  52 100 MISG      30.24R
HAZARD APT*    CLEAR     54  52  94 CALM      30.25R
BLACK MTN*       N/A     45  45 100 VRB9        N/A
PIKEVILLE APT* CLEAR     57  46  67 CALM      30.24R
BIG SANDY*     CLEAR     52  51  96 CALM      30.24R
MOREHEAD APT*  PTCLDY    54  46  76 NW3       30.27R
ASHLAND*       CLEAR     52  46  82 CALM      30.24R
$$

KYZ035-036-041-042-044-050-067-078-099-230300
...CENTRAL KENTUCKY...

CITY           SKY/WX    TMP DP  RH WIND       PRES   REMARKS
MT STERLING*   CLEAR     54  46  76 CALM      30.26R
FLEMING/MASON* CLEAR     54  45  71 N5        30.26R
DANVILLE*      CLEAR     48  43  81 N3        30.26R
RICHMOND*      CLEAR     54  46  76 CALM      30.25R
LEXINGTON      CLEAR     56  44  64 NE6       30.25R
FRANKFORT      CLEAR     51  46  83 CALM      30.24R
$$

KYZ091>093-OHZ055-061-077-WVZ005-015-034-035-042-230300
...SOUTHERN OHIO/WEST VIRGINIA...

CITY           SKY/WX    TMP DP  RH WIND       PRES   REMARKS
COVINGTON      CLEAR     50  42  74 CALM      30.25R
COLUMBUS       CLEAR     53  43  68 CALM      30.26R
DAYTON         CLEAR     55  42  61 N3        30.26S
WILMINGTON     CLEAR     49  41  74 N3        30.25R
HUNTINGTON     CLEAR     55  45  68 N3        30.24R
CHARLESTON     PTCLDY    52  51  97 CALM      30.23R
PINEVILLE*     CLEAR     49  49 100 MISG      30.31R
BECKLEY        CLEAR     46  42  86 CALM      30.26R
BLUEFIELD      CLEAR     51  44  77 N3        30.27R
$$

VAZ002-007-008-TNZ017-027-036-066-071-230300
...SOUTHWEST VIRGINIA/EAST TENNESSEE...

CITY           SKY/WX    TMP DP  RH WIND       PRES   REMARKS
WISE*          CLEAR     50  50 100 NE3       30.27R
JONESVILLE*    CLEAR     52  50  93 CALM      30.25R
ABINGDON*      CLEAR     56  49  79 E5        30.25R
BRISTOL        CLEAR     56  47  71 CALM      30.23R
KNOXVILLE      CLEAR     61  50  67 N7        30.18R
OAK RIDGE      CLEAR     59  48  67 CALM      30.22R
CROSSVILLE     CLEAR     57  47  69 N6        30.23R
NASHVILLE      CLEAR     61  47  59 N6        30.21R
$$

...KEY TO REMARKS...
VSB - VISIBILITY IN MILES
WCI - WIND CHILL INDEX
HX  - HEAT INDEX

$$


USA.gov is the U.S. government's official web portal to all federal, state and local government web resources and services.